When you browse on this site, cookies collect data to enhance your experience and personalize the content and advertising you see.
Visit our Privacy Policy to learn more. By continuing to use the site, you agree to this use of cookies and data.
  • en France
  • Liste des pays
  • À 7 jours
  • Température de l'eau
  • Carte satellitaire
  • Carte météo
  • Widgets météo
  • user-avatar
    Se connecter

    Météo par heure à Hafun

    Ce jour, 19 Juin, Mercredi

    Heure Température Précipitation Vent Pression Humidité
    00:00 +33°C° 0 mm 13 m/s 753 mmHg 57%
    01:00 +33°C° 0 mm 14 m/s 753 mmHg 55%
    02:00 +33°C° 0 mm 14 m/s 752 mmHg 53%
    03:00 +34°C° 0 mm 14 m/s 752 mmHg 50%
    04:00 +34°C° 0 mm 13 m/s 752 mmHg 48%
    05:00 +36°C° 0 mm 13 m/s 752 mmHg 46%
    06:00 +36°C° 0 mm 12 m/s 752 mmHg 44%
    07:00 +37°C° 0 mm 12 m/s 753 mmHg 41%
    08:00 +38°C° 0 mm 12 m/s 753 mmHg 38%
    09:00 +39°C° 0 mm 12 m/s 753 mmHg 35%
    10:00 +41°C° 0 mm 11 m/s 753 mmHg 33%
    11:00 +42°C° 0 mm 11 m/s 753 mmHg 31%
    12:00 +43°C° 0 mm 10 m/s 752 mmHg 29%
    13:00 +44°C° 0 mm 10 m/s 752 mmHg 28%
    14:00 +44°C° 0 mm 11 m/s 751 mmHg 28%
    15:00 +44°C° 0 mm 11 m/s 750 mmHg 27%
    16:00 +43°C° 0 mm 12 m/s 751 mmHg 30%
    17:00 +42°C° 0 mm 13 m/s 751 mmHg 33%
    18:00 +41°C° 0 mm 13 m/s 752 mmHg 36%
    19:00 +40°C° 0 mm 14 m/s 752 mmHg 40%
    20:00 +38°C° 0 mm 14 m/s 752 mmHg 43%
    21:00 +36°C° 0 mm 14 m/s 753 mmHg 47%
    22:00 +36°C° 0 mm 14 m/s 752 mmHg 48%
    23:00 +36°C° 0 mm 14 m/s 752 mmHg 48%

    Demain, 20 Juin, Jeudi

    Heure Température Précipitation Vent Pression Humidité
    00:00 +34°C° 0 mm 14 m/s 752 mmHg 49%
    01:00 +36°C° 0 mm 14 m/s 751 mmHg 47%
    02:00 +36°C° 0 mm 14 m/s 751 mmHg 46%
    03:00 +36°C° 0 mm 14 m/s 751 mmHg 44%
    04:00 +36°C° 0 mm 13 m/s 751 mmHg 43%
    05:00 +36°C° 0 mm 13 m/s 752 mmHg 43%
    06:00 +36°C° 0 mm 13 m/s 752 mmHg 42%
    07:00 +37°C° 0 mm 12 m/s 753 mmHg 39%
    08:00 +38°C° 0 mm 12 m/s 753 mmHg 35%
    09:00 +41°C° 0 mm 11 m/s 753 mmHg 32%
    10:00 +42°C° 0 mm 11 m/s 753 mmHg 30%
    11:00 +43°C° 0 mm 11 m/s 753 mmHg 29%
    12:00 +44°C° 0 mm 12 m/s 752 mmHg 28%
    13:00 +43°C° 0 mm 12 m/s 752 mmHg 29%
    14:00 +43°C° 0 mm 13 m/s 751 mmHg 30%
    15:00 +43°C° 0 mm 14 m/s 751 mmHg 32%
    16:00 +42°C° 0 mm 14 m/s 751 mmHg 35%
    17:00 +40°C° 0 mm 15 m/s 751 mmHg 38%
    18:00 +38°C° 0 mm 15 m/s 751 mmHg 41%
    19:00 +37°C° 0 mm 15 m/s 752 mmHg 45%
    20:00 +36°C° 0 mm 15 m/s 752 mmHg 48%
    21:00 +34°C° 0 mm 15 m/s 753 mmHg 52%
    22:00 +34°C° 0 mm 15 m/s 753 mmHg 52%
    23:00 +34°C° 0 mm 15 m/s 752 mmHg 52%

    Après-demain, 21 Juin, Vendredi

    Heure Température Précipitation Vent Pression Humidité
    00:00 +34°C° 0 mm 15 m/s 752 mmHg 52%
    01:00 +34°C° 0 mm 15 m/s 752 mmHg 50%
    02:00 +34°C° 0 mm 15 m/s 752 mmHg 49%
    03:00 +34°C° 0 mm 14 m/s 751 mmHg 47%
    04:00 +34°C° 0 mm 14 m/s 752 mmHg 46%
    05:00 +34°C° 0 mm 14 m/s 753 mmHg 45%
    06:00 +34°C° 0 mm 13 m/s 753 mmHg 44%
    07:00 +36°C° 0 mm 13 m/s 753 mmHg 41%
    08:00 +38°C° 0 mm 13 m/s 754 mmHg 38%
    09:00 +39°C° 0 mm 12 m/s 754 mmHg 35%
    10:00 +41°C° 0 mm 13 m/s 753 mmHg 34%
    11:00 +42°C° 0 mm 13 m/s 753 mmHg 33%
    12:00 +42°C° 0 mm 13 m/s 753 mmHg 32%
    13:00 +42°C° 0 mm 14 m/s 752 mmHg 33%
    14:00 +42°C° 0 mm 14 m/s 751 mmHg 34%
    15:00 +42°C° 0 mm 14 m/s 751 mmHg 35%
    16:00 +41°C° 0 mm 15 m/s 751 mmHg 37%
    17:00 +40°C° 0 mm 15 m/s 751 mmHg 39%
    18:00 +38°C° 0 mm 15 m/s 752 mmHg 42%
    19:00 +37°C° 0 mm 15 m/s 752 mmHg 44%
    20:00 +36°C° 0 mm 15 m/s 753 mmHg 45%
    21:00 +36°C° 0 mm 14 m/s 753 mmHg 47%
    22:00 +34°C° 0 mm 14 m/s 753 mmHg 47%
    23:00 +34°C° 0 mm 14 m/s 753 mmHg 48%

    22 Juin, Samedi

    Heure Température Précipitation Vent Pression Humidité
    00:00 +34°C° 0 mm 14 m/s 752 mmHg 49%
    01:00 +33°C° 0 mm 14 m/s 752 mmHg 50%
    02:00 +33°C° 0 mm 14 m/s 752 mmHg 51%
    03:00 +33°C° 0 mm 14 m/s 751 mmHg 52%
    04:00 +33°C° 0 mm 14 m/s 752 mmHg 51%
    05:00 +33°C° 0 mm 13 m/s 753 mmHg 50%
    06:00 +33°C° 0 mm 13 m/s 753 mmHg 49%
    07:00 +34°C° 0 mm 13 m/s 754 mmHg 45%
    08:00 +37°C° 0 mm 12 m/s 754 mmHg 42%
    09:00 +38°C° 0 mm 12 m/s 754 mmHg 38%
    10:00 +39°C° 0 mm 12 m/s 754 mmHg 36%
    11:00 +41°C° 0 mm 12 m/s 753 mmHg 34%
    12:00 +42°C° 0 mm 13 m/s 753 mmHg 33%
    13:00 +42°C° 0 mm 13 m/s 752 mmHg 34%
    14:00 +41°C° 0 mm 13 m/s 751 mmHg 35%
    15:00 +41°C° 0 mm 13 m/s 751 mmHg 36%
    16:00 +40°C° 0 mm 14 m/s 751 mmHg 39%
    17:00 +38°C° 0 mm 14 m/s 751 mmHg 41%
    18:00 +37°C° 0 mm 14 m/s 752 mmHg 44%
    19:00 +36°C° 0 mm 14 m/s 752 mmHg 46%
    20:00 +34°C° 0 mm 14 m/s 753 mmHg 48%
    21:00 +34°C° 0 mm 14 m/s 753 mmHg 50%
    22:00 +33°C° 0 mm 14 m/s 753 mmHg 51%
    23:00 +33°C° 0 mm 14 m/s 752 mmHg 53%

    23 Juin, Dimanche

    Heure Température Précipitation Vent Pression Humidité
    00:00 +32°C° 0 mm 13 m/s 752 mmHg 54%
    01:00 +32°C° 0 mm 13 m/s 752 mmHg 54%
    02:00 +32°C° 0 mm 13 m/s 752 mmHg 54%
    03:00 +32°C° 0 mm 13 m/s 751 mmHg 54%
    04:00 +32°C° 0 mm 12 m/s 752 mmHg 53%
    05:00 +32°C° 0 mm 12 m/s 752 mmHg 53%
    06:00 +32°C° 0 mm 12 m/s 753 mmHg 53%
    07:00 +34°C° 0 mm 11 m/s 753 mmHg 47%
    08:00 +36°C° 0 mm 11 m/s 754 mmHg 41%
    09:00 +38°C° 0 mm 11 m/s 754 mmHg 36%
    10:00 +39°C° 0 mm 11 m/s 753 mmHg 35%
    11:00 +41°C° 0 mm 12 m/s 753 mmHg 34%
    12:00 +41°C° 0 mm 12 m/s 752 mmHg 33%
    13:00 +41°C° 0 mm 12 m/s 752 mmHg 35%
    14:00 +39°C° 0 mm 13 m/s 751 mmHg 37%
    15:00 +39°C° 0 mm 13 m/s 751 mmHg 39%
    16:00 +37°C° 0 mm 13 m/s 751 mmHg 44%
    17:00 +34°C° 0 mm 13 m/s 751 mmHg 49%
    18:00 +33°C° 0 mm 13 m/s 752 mmHg 54%
    19:00 +32°C° 0 mm 13 m/s 752 mmHg 56%
    20:00 +32°C° 0 mm 13 m/s 753 mmHg 58%
    21:00 +32°C° 0 mm 13 m/s 753 mmHg 61%
    22:00 +32°C° 0 mm 13 m/s 753 mmHg 60%
    23:00 +32°C° 0 mm 13 m/s 753 mmHg 59%

    24 Juin, Lundi

    Heure Température Précipitation Vent Pression Humidité
    00:00 +31°C° 0 mm 13 m/s 752 mmHg 58%
    01:00 +31°C° 0 mm 13 m/s 752 mmHg 58%
    02:00 +31°C° 0 mm 13 m/s 752 mmHg 58%
    03:00 +31°C° 0 mm 13 m/s 752 mmHg 59%
    04:00 +31°C° 0 mm 12 m/s 752 mmHg 58%
    05:00 +31°C° 0 mm 12 m/s 753 mmHg 58%
    06:00 +31°C° 0 mm 11 m/s 753 mmHg 57%
    07:00 +33°C° 0 mm 11 m/s 754 mmHg 51%
    08:00 +36°C° 0 mm 11 m/s 754 mmHg 44%
    09:00 +38°C° 0 mm 11 m/s 754 mmHg 38%
    10:00 +39°C° 0 mm 11 m/s 754 mmHg 37%
    11:00 +39°C° 0 mm 12 m/s 753 mmHg 36%
    12:00 +41°C° 0 mm 12 m/s 753 mmHg 35%
    13:00 +41°C° 0 mm 12 m/s 752 mmHg 37%
    14:00 +39°C° 0 mm 12 m/s 752 mmHg 39%
    15:00 +38°C° 0 mm 12 m/s 751 mmHg 40%
    16:00 +36°C° 0 mm 13 m/s 752 mmHg 47%
    17:00 +34°C° 0 mm 14 m/s 752 mmHg 54%
    18:00 +32°C° 0 mm 14 m/s 752 mmHg 61%
    19:00 +32°C° 0 mm 14 m/s 752 mmHg 60%
    20:00 +32°C° 0 mm 14 m/s 753 mmHg 59%
    21:00 +32°C° 0 mm 14 m/s 753 mmHg 58%
    22:00 +32°C° 0 mm 13 m/s 753 mmHg 58%
    23:00 +32°C° 0 mm 13 m/s 753 mmHg 59%
    Voir plus